Find Starlink 3866

NORAD ID: 52500 Int'l Des: 2022-049 Owner: SPXS Country: US Constellation: starlink operational
LEOCIRCULAR

Live Position

Loading 3D Globe...

About Starlink 3866

Description loading...

Upcoming Passes

Passes for default location (London). Set your location on the main map for personalized predictions.

Altitude History

Loading altitude history...

Two-Line Element Set

1 52500U 22049BB 26104.09424523 .00000927 00000-0 76339-4 0 9991
2 52500 53.2164 240.1808 0001219 92.3577 267.7555 15.08840145217872
Epoch: Apr 14, 2026 • Age: 13 hours

Current Status

Altitude 539.8 km
Velocity 7.59 km/s
Sub-Earth Point 8.42°N, 175.92°E
Launch Date May 6, 2022
Age 3.9 years
Type internet

Technical Details

Classification Payload
Mass 297.00 kg
Dry Mass 220.00 kg
Total Mass 297.00 kg
Length 0.20 m
Diameter 2.80 m
Span 9.00 m
Shape Box + pan
Manufacturer SPXS
Bus Type Starlink
Phase Status In Orbit
Owner/State SPXS/US

Most Searched